This demonstration page uses our WeatherBlox Daily Observations layout. Learn more.

Left ArrowRight Arrow

38.88101, -77.10428

Hourly Observations for May 3, 2021

Temp ( °F °C ) Dew Point ( °F °C ) Humidity (%) Winds ( mph kmh ) Pressure ( in mb ) Visibility ( mi km ) Precip ( " mm )
12:52 am 00:52 Cloudy 69 20.6 56 13.3 63 63 S 8 13 29.81 1010 10 16 N/A
1:52 am 01:52 Cloudy 69 20.6 54 12.2 59 59 S 7 11 29.80 1009 10 16 N/A
2:52 am 02:52 Cloudy 67 19.4 55 12.8 66 66 S 6 9 29.80 1009 10 16 N/A
3:52 am 03:52 Cloudy 67 19.4 56 13.3 68 68 S 6 9 29.82 1010 10 16 N/A
4:52 am 04:52 Cloudy 67 19.4 56 13.3 68 68 S 8 13 29.84 1010 10 16 N/A
5:52 am 05:52 Cloudy with Light Rain 68 20 54 12.2 61 61 NNW 7 11 29.84 1010 9 14 0.01 0.25
6:52 am 06:52 Cloudy 67 19.4 55 12.8 66 66 WNW 13 20 29.87 1011 10 16 0.00 0.00
7:52 am 07:52 Cloudy 66 18.9 55 12.8 68 68 NNW 8 13 29.87 1012 10 16 N/A
8:52 am 08:52 Cloudy 67 19.4 56 13.3 68 68 SSW 8 13 29.90 1012 10 16 N/A
9:52 am 09:52 Cloudy with Light Rain 69 20.6 56 13.3 63 63 N N/A 29.88 1012 10 16 0.00 0.00
10:52 am 10:52 Cloudy 68 20 58 14.4 70 70 S 7 11 29.86 1011 10 16 0.00 0.00
11:52 am 11:52 Cloudy 70 21.1 61 16.1 73 73 S 12 19 29.85 1011 10 16 N/A
12:52 pm 12:52 Cloudy with Light Rain 69 20.6 64 17.8 84 84 S 6 9 29.82 1010 8 13 0.01 0.25
1:52 pm 13:52 Cloudy 73 22.8 64 17.8 74 74 S 7 11 29.80 1009 10 16 0.00 0.00
2:13 pm 14:13 Cloudy 72 22.2 64 17.8 76 76 S 13 20 29.79 1009 10 16 N/A
2:52 pm 14:52 Cloudy 73 22.8 64 17.8 74 74 S 14 22 29.77 1008 10 16 N/A
3:34 pm 15:34 Cloudy 74 23.3 65 18.3 74 74 S 12 19 29.75 1007 10 16 N/A
3:36 pm 15:36 Cloudy 73 22.8 65 18.3 76 76 S 13 20 29.75 1007 10 16 N/A
3:52 pm 15:52 Cloudy 72 22.2 65 18.3 79 79 S 14 22 29.73 1007 10 16 N/A
4:52 pm 16:52 Cloudy 75 23.9 65 18.3 71 71 SSW 16 26 29.72 1006 10 16 N/A
5:08 pm 17:08 Mostly Cloudy 73 22.8 65 18.3 76 76 S 16 26 29.72 1006 10 16 N/A
5:52 pm 17:52 Cloudy 73 22.8 65 18.3 76 76 S 13 20 29.71 1006 10 16 N/A
6:52 pm 18:52 Cloudy 73 22.8 66 18.9 79 79 S 9 15 29.68 1005 10 16 N/A
7:52 pm 19:52 Cloudy 72 22.2 65 18.3 79 79 S 12 19 29.68 1005 10 16 0.00 0.00
8:52 pm 20:52 Mostly Cloudy 71 21.7 64 17.8 79 79 S 12 19 29.67 1005 10 16 N/A
9:52 pm 21:52 Mostly Cloudy 72 22.2 62 16.7 71 71 SSW 14 22 29.69 1005 10 16 N/A
10:29 pm 22:29 Mostly Cloudy 72 22.2 62 16.7 71 71 S 16 26 29.70 1006 10 16 N/A
10:50 pm 22:50 Cloudy with Light Rain 72 22 63 17 73 73 S 13 20 29.70 1006 10 16 0.00 0.00
10:52 pm 22:52 Cloudy with Light Rain 72 22.2 63 17.2 73 73 S 14 22 29.70 1006 10 16 0.00 0.00
11:04 pm 23:04 Cloudy with Light Rain 71 21.7 63 17.2 76 76 S 14 22 29.70 1006 9 14 0.00 0.00
11:52 pm 23:52 Cloudy 69 20.6 64 17.8 84 84 S 9 15 29.70 1006 10 16 0.02 0.51

Powered by AerisWeather